Year,Month,Day,Hour,Minute,Value (Times are PST for temperature in C)
2016,07,20,00,00,17.50
2016,07,20,00,01,17.50
2016,07,20,00,02,17.50
2016,07,20,00,03,17.50
2016,07,20,00,04,17.50
2016,07,20,00,05,17.50
2016,07,20,00,06,17.50
2016,07,20,00,07,17.50
2016,07,20,00,08,17.50
2016,07,20,00,09,17.40
2016,07,20,00,10,17.40
2016,07,20,00,11,17.40
2016,07,20,00,12,17.40
2016,07,20,00,13,17.40
2016,07,20,00,14,17.40
2016,07,20,00,15,17.40
2016,07,20,00,16,17.40
2016,07,20,00,17,17.40
2016,07,20,00,18,17.40
2016,07,20,00,19,17.40
2016,07,20,00,20,17.40
2016,07,20,00,21,17.40
2016,07,20,00,22,17.40
2016,07,20,00,23,17.40
2016,07,20,00,24,17.40
2016,07,20,00,25,17.40
2016,07,20,00,26,17.40
2016,07,20,00,27,17.40
2016,07,20,00,28,17.40
2016,07,20,00,29,17.40
2016,07,20,00,30,17.40
2016,07,20,00,31,17.40
2016,07,20,00,32,17.30
2016,07,20,00,33,17.30
2016,07,20,00,34,17.30
2016,07,20,00,35,17.30
2016,07,20,00,36,17.30
2016,07,20,00,37,17.30
2016,07,20,00,38,17.30
2016,07,20,00,39,17.30
2016,07,20,00,40,17.30
2016,07,20,00,41,17.30
2016,07,20,00,42,17.30
2016,07,20,00,43,17.30
2016,07,20,00,44,17.30
2016,07,20,00,45,17.30
2016,07,20,00,46,17.30
2016,07,20,00,47,17.30
2016,07,20,00,48,17.30
2016,07,20,00,49,17.20
2016,07,20,00,50,17.20
2016,07,20,00,51,17.20
2016,07,20,00,52,17.20
2016,07,20,00,53,17.20
2016,07,20,00,54,17.20
2016,07,20,00,55,17.20
2016,07,20,00,56,17.20
2016,07,20,00,57,17.20
2016,07,20,00,58,17.20
2016,07,20,00,59,17.10
2016,07,20,01,00,17.10
2016,07,20,01,01,17.10
2016,07,20,01,02,17.10
2016,07,20,01,03,17.10
2016,07,20,01,04,17.10
2016,07,20,01,05,17.00
2016,07,20,01,06,17.00
2016,07,20,01,07,17.00
2016,07,20,01,08,16.90
2016,07,20,01,09,16.90
2016,07,20,01,10,16.90
2016,07,20,01,11,16.90
2016,07,20,01,12,16.90
2016,07,20,01,13,16.90
2016,07,20,01,14,16.80
2016,07,20,01,15,16.80
2016,07,20,01,16,16.80
2016,07,20,01,17,16.80
2016,07,20,01,18,16.80
2016,07,20,01,19,16.80
2016,07,20,01,20,16.80
2016,07,20,01,21,16.70
2016,07,20,01,22,16.70
2016,07,20,01,23,16.70
2016,07,20,01,24,16.70
2016,07,20,01,25,16.70
2016,07,20,01,26,16.60
2016,07,20,01,27,16.60
2016,07,20,01,28,16.60
2016,07,20,01,29,16.60
2016,07,20,01,30,16.50
2016,07,20,01,31,16.50
2016,07,20,01,32,16.50
2016,07,20,01,33,16.40
2016,07,20,01,34,16.40
2016,07,20,01,35,16.40
2016,07,20,01,36,16.40
2016,07,20,01,37,16.40
2016,07,20,01,38,16.30
2016,07,20,01,39,16.30
2016,07,20,01,40,16.30
2016,07,20,01,41,16.30
2016,07,20,01,42,16.30
2016,07,20,01,43,16.30
2016,07,20,01,44,16.20
2016,07,20,01,45,16.20
2016,07,20,01,46,16.20
2016,07,20,01,47,16.20
2016,07,20,01,48,16.20
2016,07,20,01,49,16.20
2016,07,20,01,50,16.10
2016,07,20,01,51,16.10
2016,07,20,01,52,16.10
2016,07,20,01,53,16.10
2016,07,20,01,54,16.10
2016,07,20,01,55,16.10
2016,07,20,01,56,16.10
2016,07,20,01,57,16.10
2016,07,20,01,58,16.10
2016,07,20,01,59,16.10
2016,07,20,02,00,16.00
2016,07,20,02,01,16.00
2016,07,20,02,02,16.00
2016,07,20,02,03,16.00
2016,07,20,02,04,16.00
2016,07,20,02,05,16.00
2016,07,20,02,06,16.00
2016,07,20,02,07,16.00
2016,07,20,02,08,16.00
2016,07,20,02,09,16.00
2016,07,20,02,10,16.00
2016,07,20,02,11,15.90
2016,07,20,02,12,15.90
2016,07,20,02,13,15.90
2016,07,20,02,14,15.90
2016,07,20,02,15,15.90
2016,07,20,02,16,15.90
2016,07,20,02,17,15.90
2016,07,20,02,18,15.90
2016,07,20,02,19,15.90
2016,07,20,02,20,15.90
2016,07,20,02,21,15.90
2016,07,20,02,22,15.90
2016,07,20,02,23,15.90
2016,07,20,02,24,15.90
2016,07,20,02,25,15.80
2016,07,20,02,26,15.80
2016,07,20,02,27,15.80
2016,07,20,02,28,15.80
2016,07,20,02,29,15.80
2016,07,20,02,30,15.80
2016,07,20,02,31,15.80
2016,07,20,02,32,15.80
2016,07,20,02,33,15.80
2016,07,20,02,34,15.80
2016,07,20,02,35,15.80
2016,07,20,02,36,15.80
2016,07,20,02,37,15.80
2016,07,20,02,38,15.70
2016,07,20,02,39,15.70
2016,07,20,02,40,15.70
2016,07,20,02,41,15.70
2016,07,20,02,42,15.70
2016,07,20,02,43,15.70
2016,07,20,02,44,15.70
2016,07,20,02,45,15.70
2016,07,20,02,46,15.70
2016,07,20,02,47,15.70
2016,07,20,02,48,15.70
2016,07,20,02,49,15.70
2016,07,20,02,50,15.70
2016,07,20,02,51,15.70
2016,07,20,02,52,15.70
2016,07,20,02,53,15.70
2016,07,20,02,54,15.70
2016,07,20,02,55,15.70
2016,07,20,02,56,15.70
2016,07,20,02,57,15.70
2016,07,20,02,58,15.70
2016,07,20,02,59,15.70
2016,07,20,03,00,15.70
2016,07,20,03,01,15.70
2016,07,20,03,02,15.70
2016,07,20,03,03,15.70
2016,07,20,03,04,15.70
2016,07,20,03,05,15.70
2016,07,20,03,06,15.70
2016,07,20,03,07,15.70
2016,07,20,03,08,15.70
2016,07,20,03,09,15.70
2016,07,20,03,10,15.70
2016,07,20,03,11,15.70
2016,07,20,03,12,15.70
2016,07,20,03,13,15.70
2016,07,20,03,14,15.70
2016,07,20,03,15,15.70
2016,07,20,03,16,15.70
2016,07,20,03,17,15.70
2016,07,20,03,18,15.70
2016,07,20,03,19,15.70
2016,07,20,03,20,15.70
2016,07,20,03,21,15.70
2016,07,20,03,22,15.70
2016,07,20,03,23,15.70
2016,07,20,03,24,15.70
2016,07,20,03,25,15.60
2016,07,20,03,26,15.60
2016,07,20,03,27,15.60
2016,07,20,03,28,15.60
2016,07,20,03,29,15.60
2016,07,20,03,30,15.60
2016,07,20,03,31,15.60
2016,07,20,03,32,15.60
2016,07,20,03,33,15.60
2016,07,20,03,34,15.60
2016,07,20,03,35,15.60
2016,07,20,03,36,15.60
2016,07,20,03,37,15.60
2016,07,20,03,38,15.60
2016,07,20,03,39,15.60
2016,07,20,03,40,15.60
2016,07,20,03,41,15.60
2016,07,20,03,42,15.60
2016,07,20,03,43,15.60
2016,07,20,03,44,15.60
2016,07,20,03,45,15.60
2016,07,20,03,46,15.60
2016,07,20,03,47,15.60
2016,07,20,03,48,15.60
2016,07,20,03,49,15.60
2016,07,20,03,50,15.60
2016,07,20,03,51,15.60
2016,07,20,03,52,15.70
2016,07,20,03,53,15.70
2016,07,20,03,54,15.70
2016,07,20,03,55,15.70
2016,07,20,03,56,15.70
2016,07,20,03,57,15.70
2016,07,20,03,58,15.70
2016,07,20,03,59,15.70
2016,07,20,04,00,15.70
2016,07,20,04,01,15.70
2016,07,20,04,02,15.70
2016,07,20,04,03,15.70
2016,07,20,04,04,15.70
2016,07,20,04,05,15.70
2016,07,20,04,06,15.70
2016,07,20,04,07,15.70
2016,07,20,04,08,15.70
2016,07,20,04,09,15.70
2016,07,20,04,10,15.70
2016,07,20,04,11,15.70
2016,07,20,04,12,15.70
2016,07,20,04,13,15.70
2016,07,20,04,14,15.70
2016,07,20,04,15,15.70
2016,07,20,04,16,15.70
2016,07,20,04,17,15.70
2016,07,20,04,18,15.70
2016,07,20,04,19,15.70
2016,07,20,04,20,15.70
2016,07,20,04,21,15.70
2016,07,20,04,22,15.70
2016,07,20,04,23,15.70
2016,07,20,04,24,15.70
2016,07,20,04,25,15.70
2016,07,20,04,26,15.70
2016,07,20,04,27,15.70
2016,07,20,04,28,15.70
2016,07,20,04,29,15.70
2016,07,20,04,30,15.70
2016,07,20,04,31,15.70
2016,07,20,04,32,15.70
2016,07,20,04,33,15.70
2016,07,20,04,34,15.70
2016,07,20,04,35,15.70
2016,07,20,04,36,15.70
2016,07,20,04,37,15.60
2016,07,20,04,38,15.70
2016,07,20,04,39,15.60
2016,07,20,04,40,15.60
2016,07,20,04,41,15.60
2016,07,20,04,42,15.60
2016,07,20,04,43,15.60
2016,07,20,04,44,15.60
2016,07,20,04,45,15.60
2016,07,20,04,46,15.60
2016,07,20,04,47,15.60
2016,07,20,04,48,15.60
2016,07,20,04,49,15.60
2016,07,20,04,50,15.60
2016,07,20,04,51,15.60
2016,07,20,04,52,15.60
2016,07,20,04,53,15.60
2016,07,20,04,54,15.60
2016,07,20,04,55,15.60
2016,07,20,04,56,15.50
2016,07,20,04,57,15.50
2016,07,20,04,58,15.50
2016,07,20,04,59,15.50
2016,07,20,05,00,15.40
2016,07,20,05,01,15.40
2016,07,20,05,02,15.40
2016,07,20,05,03,15.40
2016,07,20,05,04,15.40
2016,07,20,05,05,15.40
2016,07,20,05,06,15.40
2016,07,20,05,07,15.30
2016,07,20,05,08,15.30
2016,07,20,05,09,15.30
2016,07,20,05,10,15.30
2016,07,20,05,11,15.30
2016,07,20,05,12,15.20
2016,07,20,05,13,15.20
2016,07,20,05,14,15.20
2016,07,20,05,15,15.20
2016,07,20,05,16,15.10
2016,07,20,05,17,15.10
2016,07,20,05,18,15.10
2016,07,20,05,19,15.10
2016,07,20,05,20,15.00
2016,07,20,05,21,15.00
2016,07,20,05,22,15.00
2016,07,20,05,23,14.90
2016,07,20,05,24,14.90
2016,07,20,05,25,14.90
2016,07,20,05,26,14.90
2016,07,20,05,27,14.80
2016,07,20,05,28,14.80
2016,07,20,05,29,14.80
2016,07,20,05,30,14.80
2016,07,20,05,31,14.70
2016,07,20,05,32,14.70
2016,07,20,05,33,14.70
2016,07,20,05,34,14.70
2016,07,20,05,35,14.70
2016,07,20,05,36,14.60
2016,07,20,05,37,14.60
2016,07,20,05,38,14.60
2016,07,20,05,39,14.60
2016,07,20,05,40,14.60
2016,07,20,05,41,14.50
2016,07,20,05,42,14.50
2016,07,20,05,43,14.50
2016,07,20,05,44,14.50
2016,07,20,05,45,14.50
2016,07,20,05,46,14.40
2016,07,20,05,47,14.40
2016,07,20,05,48,14.40
2016,07,20,05,49,14.40
2016,07,20,05,50,14.40
2016,07,20,05,51,14.40
2016,07,20,05,52,14.40
2016,07,20,05,53,14.40
2016,07,20,05,54,14.40
2016,07,20,05,55,14.40
2016,07,20,05,56,14.40
2016,07,20,05,57,14.40
2016,07,20,05,58,14.40
2016,07,20,05,59,14.40
2016,07,20,06,00,14.40
2016,07,20,06,01,14.40
2016,07,20,06,02,14.40
2016,07,20,06,03,14.40
2016,07,20,06,04,14.40
2016,07,20,06,05,14.40
2016,07,20,06,06,14.40
2016,07,20,06,07,14.40
2016,07,20,06,08,14.40
2016,07,20,06,09,14.40
2016,07,20,06,10,14.40
2016,07,20,06,11,14.40
2016,07,20,06,12,14.40
2016,07,20,06,13,14.40
2016,07,20,06,14,14.40
2016,07,20,06,15,14.50
2016,07,20,06,16,14.50
2016,07,20,06,17,14.50
2016,07,20,06,18,14.50
2016,07,20,06,19,14.60
2016,07,20,06,20,14.60
2016,07,20,06,21,14.70
2016,07,20,06,22,14.70
2016,07,20,06,23,14.70
2016,07,20,06,24,14.70
2016,07,20,06,25,14.80
2016,07,20,06,26,14.80
2016,07,20,06,27,14.80
2016,07,20,06,28,14.80
2016,07,20,06,29,14.90
2016,07,20,06,30,14.90
2016,07,20,06,31,14.90
2016,07,20,06,32,14.90
2016,07,20,06,33,14.90
2016,07,20,06,34,14.90
2016,07,20,06,35,14.90
2016,07,20,06,36,15.00
2016,07,20,06,37,15.00
2016,07,20,06,38,15.00
2016,07,20,06,39,15.00
2016,07,20,06,40,15.00
2016,07,20,06,41,15.00
2016,07,20,06,42,15.00
2016,07,20,06,43,15.00
2016,07,20,06,44,15.00
2016,07,20,06,45,15.00
2016,07,20,06,46,15.00
2016,07,20,06,47,15.00
2016,07,20,06,48,15.00
2016,07,20,06,49,15.10
2016,07,20,06,50,15.10
2016,07,20,06,51,15.10
2016,07,20,06,52,15.10
2016,07,20,06,53,15.10
2016,07,20,06,54,15.10
2016,07,20,06,55,15.20
2016,07,20,06,56,15.20
2016,07,20,06,57,15.30
2016,07,20,06,58,15.30
2016,07,20,06,59,15.40
2016,07,20,07,00,15.50
2016,07,20,07,01,15.60
2016,07,20,07,02,15.60
2016,07,20,07,03,15.70
2016,07,20,07,04,15.70
2016,07,20,07,05,15.80
2016,07,20,07,06,15.80
2016,07,20,07,07,15.90
2016,07,20,07,08,15.90
2016,07,20,07,09,16.00
2016,07,20,07,10,16.00
2016,07,20,07,11,16.10
2016,07,20,07,12,16.10
2016,07,20,07,13,16.10
2016,07,20,07,14,16.20
2016,07,20,07,15,16.20
2016,07,20,07,16,16.20
2016,07,20,07,17,16.30
2016,07,20,07,18,16.30
2016,07,20,07,19,16.30
2016,07,20,07,20,16.30
2016,07,20,07,21,16.30
2016,07,20,07,22,16.30
2016,07,20,07,23,16.30
2016,07,20,07,24,16.30
2016,07,20,07,25,16.30
2016,07,20,07,26,16.30
2016,07,20,07,27,16.30
2016,07,20,07,28,16.30
2016,07,20,07,29,16.30
2016,07,20,07,30,16.30
2016,07,20,07,31,16.30
2016,07,20,07,32,16.20
2016,07,20,07,33,16.20
2016,07,20,07,34,16.10
2016,07,20,07,35,16.00
2016,07,20,07,36,16.00
2016,07,20,07,37,15.90
2016,07,20,07,38,15.90
2016,07,20,07,39,15.80
2016,07,20,07,40,15.80
2016,07,20,07,41,15.70
2016,07,20,07,42,15.70
2016,07,20,07,43,15.70
2016,07,20,07,44,15.60
2016,07,20,07,45,15.60
2016,07,20,07,46,15.60
2016,07,20,07,47,15.60
2016,07,20,07,48,15.50
2016,07,20,07,49,15.50
2016,07,20,07,50,15.50
2016,07,20,07,51,15.40
2016,07,20,07,52,15.40
2016,07,20,07,53,15.40
2016,07,20,07,54,15.40
2016,07,20,07,55,15.40
2016,07,20,07,56,15.40
2016,07,20,07,57,15.40
2016,07,20,07,58,15.40
2016,07,20,07,59,15.50
2016,07,20,08,00,15.50
2016,07,20,08,01,15.50
2016,07,20,08,02,15.60
2016,07,20,08,03,15.60
2016,07,20,08,04,15.60
2016,07,20,08,05,15.70
2016,07,20,08,06,15.70
2016,07,20,08,07,15.70
2016,07,20,08,08,15.80
2016,07,20,08,09,15.80
2016,07,20,08,10,15.80
2016,07,20,08,11,15.80
2016,07,20,08,12,15.80
2016,07,20,08,13,15.80
2016,07,20,08,14,15.80
2016,07,20,08,15,15.80
2016,07,20,08,16,15.80
2016,07,20,08,17,15.80
2016,07,20,08,18,15.80
2016,07,20,08,19,15.80
2016,07,20,08,20,15.70
2016,07,20,08,21,15.70
2016,07,20,08,22,15.70
2016,07,20,08,23,15.70
2016,07,20,08,24,15.70
2016,07,20,08,25,15.70
2016,07,20,08,26,15.70
2016,07,20,08,27,15.70
2016,07,20,08,28,15.70
2016,07,20,08,29,15.70
2016,07,20,08,30,15.70
2016,07,20,08,31,15.70
2016,07,20,08,32,15.70
2016,07,20,08,33,15.80
2016,07,20,08,34,15.80
2016,07,20,08,35,15.90
2016,07,20,08,36,16.00
2016,07,20,08,37,16.10
2016,07,20,08,38,16.10
2016,07,20,08,39,16.20
2016,07,20,08,40,16.30
2016,07,20,08,41,16.40
2016,07,20,08,42,16.50
2016,07,20,08,43,16.60
2016,07,20,08,44,16.80
2016,07,20,08,45,16.90
2016,07,20,08,46,17.00
2016,07,20,08,47,17.20
2016,07,20,08,48,17.30
2016,07,20,08,49,17.50
2016,07,20,08,50,17.60
2016,07,20,08,51,17.80
2016,07,20,08,52,17.90
2016,07,20,08,53,18.10
2016,07,20,08,54,18.20
2016,07,20,08,55,18.40
2016,07,20,08,56,18.50
2016,07,20,08,57,18.60
2016,07,20,08,58,18.70
2016,07,20,08,59,18.80
2016,07,20,09,00,18.90
2016,07,20,09,01,18.90
2016,07,20,09,02,18.90
2016,07,20,09,03,19.00
2016,07,20,09,04,19.10
2016,07,20,09,05,19.10
2016,07,20,09,06,19.10
2016,07,20,09,07,19.10
2016,07,20,09,08,19.10
2016,07,20,09,09,19.10
2016,07,20,09,10,19.10
2016,07,20,09,11,19.00
2016,07,20,09,12,19.00
2016,07,20,09,13,18.90
2016,07,20,09,14,18.80
2016,07,20,09,15,18.70
2016,07,20,09,16,18.50
2016,07,20,09,17,18.40
2016,07,20,09,18,18.20
2016,07,20,09,19,18.00
2016,07,20,09,20,17.90
2016,07,20,09,21,17.80
2016,07,20,09,22,17.70
2016,07,20,09,23,17.70
2016,07,20,09,24,17.60
2016,07,20,09,25,17.60
2016,07,20,09,26,17.60
2016,07,20,09,27,17.60
2016,07,20,09,28,17.50
2016,07,20,09,29,17.50
2016,07,20,09,30,17.40
2016,07,20,09,31,17.40
2016,07,20,09,32,17.40
2016,07,20,09,33,17.30
2016,07,20,09,34,17.30
2016,07,20,09,35,17.30
2016,07,20,09,36,17.30
2016,07,20,09,37,17.30
2016,07,20,09,38,17.30
2016,07,20,09,39,17.30
2016,07,20,09,40,17.30
2016,07,20,09,41,17.30
2016,07,20,09,42,17.30
2016,07,20,09,43,17.30
2016,07,20,09,44,17.30
2016,07,20,09,45,17.30
2016,07,20,09,46,17.30
2016,07,20,09,47,17.20
2016,07,20,09,48,17.20
2016,07,20,09,49,17.20
2016,07,20,09,50,17.10
2016,07,20,09,51,17.10
2016,07,20,09,52,17.10
2016,07,20,09,53,17.10
2016,07,20,09,54,17.00
2016,07,20,09,55,17.00
2016,07,20,09,56,17.10
2016,07,20,09,57,17.10
2016,07,20,09,58,17.10
2016,07,20,09,59,17.20
2016,07,20,10,00,17.30
2016,07,20,10,01,17.40
2016,07,20,10,02,17.50
2016,07,20,10,03,17.60
2016,07,20,10,04,17.80
2016,07,20,10,05,17.90
2016,07,20,10,06,18.00
2016,07,20,10,07,18.10
2016,07,20,10,08,18.30
2016,07,20,10,09,18.40
2016,07,20,10,10,18.50
2016,07,20,10,11,18.70
2016,07,20,10,12,18.80
2016,07,20,10,13,18.90
2016,07,20,10,14,19.00
2016,07,20,10,15,19.00
2016,07,20,10,16,19.10
2016,07,20,10,17,19.20
2016,07,20,10,18,19.30
2016,07,20,10,19,19.40
2016,07,20,10,20,19.40
2016,07,20,10,21,19.50
2016,07,20,10,22,19.60
2016,07,20,10,23,19.60
2016,07,20,10,24,19.60
2016,07,20,10,25,19.60
2016,07,20,10,26,19.70
2016,07,20,10,27,19.70
2016,07,20,10,28,19.80
2016,07,20,10,29,19.80
2016,07,20,10,30,19.90
2016,07,20,10,31,19.90
2016,07,20,10,32,20.00
2016,07,20,10,33,20.00
2016,07,20,10,34,20.10
2016,07,20,10,35,20.20
2016,07,20,10,36,20.30
2016,07,20,10,37,20.40
2016,07,20,10,38,20.40
2016,07,20,10,39,20.50
2016,07,20,10,40,20.50
2016,07,20,10,41,20.40
2016,07,20,10,42,20.40
2016,07,20,10,43,20.30
2016,07,20,10,44,20.30
2016,07,20,10,45,20.30
2016,07,20,10,46,20.40
2016,07,20,10,47,20.60
2016,07,20,10,48,20.70
2016,07,20,10,49,20.80
2016,07,20,10,50,20.90
2016,07,20,10,51,21.00
2016,07,20,10,52,21.10
2016,07,20,10,53,21.20
2016,07,20,10,54,21.40
2016,07,20,10,55,21.50
2016,07,20,10,56,21.60
2016,07,20,10,57,21.60
2016,07,20,10,58,21.70
2016,07,20,10,59,21.70
2016,07,20,11,00,21.70
2016,07,20,11,01,21.80
2016,07,20,11,02,21.90
2016,07,20,11,03,22.00
2016,07,20,11,04,22.10
2016,07,20,11,05,22.30
2016,07,20,11,06,22.40
2016,07,20,11,07,22.40
2016,07,20,11,08,22.40
2016,07,20,11,09,22.30
2016,07,20,11,10,22.30
2016,07,20,11,11,22.30
2016,07,20,11,12,22.30
2016,07,20,11,13,22.40
2016,07,20,11,14,22.40
2016,07,20,11,15,22.50
2016,07,20,11,16,22.60
2016,07,20,11,17,22.70
2016,07,20,11,18,22.70
2016,07,20,11,19,22.80
2016,07,20,11,20,22.80
2016,07,20,11,21,22.80
2016,07,20,11,22,22.80
2016,07,20,11,23,22.80
2016,07,20,11,24,22.80
2016,07,20,11,25,22.90
2016,07,20,11,26,23.00
2016,07,20,11,27,23.00
2016,07,20,11,28,23.00
2016,07,20,11,29,23.10
2016,07,20,11,30,23.10
2016,07,20,11,31,23.10
2016,07,20,11,32,23.20
2016,07,20,11,33,23.20
2016,07,20,11,34,23.30
2016,07,20,11,35,23.30
2016,07,20,11,36,23.30
2016,07,20,11,37,23.30
2016,07,20,11,38,23.30
2016,07,20,11,39,23.30
2016,07,20,11,40,23.30
2016,07,20,11,41,23.30
2016,07,20,11,42,23.30
2016,07,20,11,43,23.30
2016,07,20,11,44,23.30
2016,07,20,11,45,23.30
2016,07,20,11,46,23.20
2016,07,20,11,47,23.20
2016,07,20,11,48,23.20
2016,07,20,11,49,23.20
2016,07,20,11,50,23.20
2016,07,20,11,51,23.20
2016,07,20,11,52,23.10
2016,07,20,11,53,23.10
2016,07,20,11,54,23.20
2016,07,20,11,55,23.20
2016,07,20,11,56,23.20
2016,07,20,11,57,23.20
2016,07,20,11,58,23.20
2016,07,20,11,59,23.10
2016,07,20,12,00,23.10
2016,07,20,12,01,23.00
2016,07,20,12,02,23.00
2016,07,20,12,03,23.00
2016,07,20,12,04,23.00
2016,07,20,12,05,23.00
2016,07,20,12,06,23.10
2016,07,20,12,07,23.10
2016,07,20,12,08,23.10
2016,07,20,12,09,23.20
2016,07,20,12,10,23.10
2016,07,20,12,11,23.10
2016,07,20,12,12,23.10
2016,07,20,12,13,23.00
2016,07,20,12,14,22.90
2016,07,20,12,15,22.90
2016,07,20,12,16,22.90
2016,07,20,12,17,22.90
2016,07,20,12,18,22.90
2016,07,20,12,19,22.80
2016,07,20,12,20,22.80
2016,07,20,12,21,22.90
2016,07,20,12,22,23.00
2016,07,20,12,23,23.00
2016,07,20,12,24,23.10
2016,07,20,12,25,23.10
2016,07,20,12,26,23.10
2016,07,20,12,27,23.00
2016,07,20,12,28,23.00
2016,07,20,12,29,22.90
2016,07,20,12,30,22.90
2016,07,20,12,31,22.90
2016,07,20,12,32,22.90
2016,07,20,12,33,22.80
2016,07,20,12,34,22.80
2016,07,20,12,35,22.80
2016,07,20,12,36,22.90
2016,07,20,12,37,23.00
2016,07,20,12,38,23.00
2016,07,20,12,39,23.10
2016,07,20,12,40,23.10
2016,07,20,12,41,23.10
2016,07,20,12,42,23.20
2016,07,20,12,43,23.10
2016,07,20,12,44,23.10
2016,07,20,12,45,23.10
2016,07,20,12,46,23.00
2016,07,20,12,47,23.00
2016,07,20,12,48,23.00
2016,07,20,12,49,22.90
2016,07,20,12,50,22.90
2016,07,20,12,51,23.00
2016,07,20,12,52,23.00
2016,07,20,12,53,23.10
2016,07,20,12,54,23.20
2016,07,20,12,55,23.30
2016,07,20,12,56,23.40
2016,07,20,12,57,23.50
2016,07,20,12,58,23.50
2016,07,20,12,59,23.40
2016,07,20,13,00,23.40
2016,07,20,13,01,23.40
2016,07,20,13,02,23.40
2016,07,20,13,03,23.40
2016,07,20,13,04,23.30
2016,07,20,13,05,23.20
2016,07,20,13,06,23.20
2016,07,20,13,07,23.20
2016,07,20,13,08,23.20
2016,07,20,13,09,23.20
2016,07,20,13,10,23.30
2016,07,20,13,11,23.40
2016,07,20,13,12,23.40
2016,07,20,13,13,23.50
2016,07,20,13,14,23.50
2016,07,20,13,15,23.60
2016,07,20,13,16,23.70
2016,07,20,13,17,23.80
2016,07,20,13,18,23.90
2016,07,20,13,19,23.90
2016,07,20,13,20,24.00
2016,07,20,13,21,24.00
2016,07,20,13,22,24.00
2016,07,20,13,23,23.90
2016,07,20,13,24,23.80
2016,07,20,13,25,23.80
2016,07,20,13,26,23.80
2016,07,20,13,27,23.80
2016,07,20,13,28,23.80
2016,07,20,13,29,23.80
2016,07,20,13,30,23.70
2016,07,20,13,31,23.70
2016,07,20,13,32,23.70
2016,07,20,13,33,23.70
2016,07,20,13,34,23.70
2016,07,20,13,35,23.60
2016,07,20,13,36,23.60
2016,07,20,13,37,23.60
2016,07,20,13,38,23.60
2016,07,20,13,39,23.50
2016,07,20,13,40,23.50
2016,07,20,13,41,23.40
2016,07,20,13,42,23.40
2016,07,20,13,43,23.30
2016,07,20,13,44,23.30
2016,07,20,13,45,23.20
2016,07,20,13,46,23.10
2016,07,20,13,47,23.00
2016,07,20,13,48,23.00
2016,07,20,13,49,22.90
2016,07,20,13,50,22.80
2016,07,20,13,51,22.80
2016,07,20,13,52,22.80
2016,07,20,13,53,22.80
2016,07,20,13,54,22.90
2016,07,20,13,55,22.90
2016,07,20,13,56,23.00
2016,07,20,13,57,23.00
2016,07,20,13,58,23.10
2016,07,20,13,59,23.30
2016,07,20,14,00,23.40
2016,07,20,14,01,23.60
2016,07,20,14,02,23.70
2016,07,20,14,03,23.90
2016,07,20,14,04,24.00
2016,07,20,14,05,24.10
2016,07,20,14,06,24.20
2016,07,20,14,07,24.20
2016,07,20,14,08,24.20
2016,07,20,14,09,24.20
2016,07,20,14,10,24.10
2016,07,20,14,11,24.10
2016,07,20,14,12,24.10
2016,07,20,14,13,24.10
2016,07,20,14,14,24.10
2016,07,20,14,15,24.20
2016,07,20,14,16,24.20
2016,07,20,14,17,24.30
2016,07,20,14,18,24.30
2016,07,20,14,19,24.30
2016,07,20,14,20,24.30
2016,07,20,14,21,24.30
2016,07,20,14,22,24.30
2016,07,20,14,23,24.20
2016,07,20,14,24,24.20
2016,07,20,14,25,24.20
2016,07,20,14,26,24.20
2016,07,20,14,27,24.30
2016,07,20,14,28,24.40
2016,07,20,14,29,24.40
2016,07,20,14,30,24.40
2016,07,20,14,31,24.40
2016,07,20,14,32,24.40
2016,07,20,14,33,24.40
2016,07,20,14,34,24.40
2016,07,20,14,35,24.50
2016,07,20,14,36,24.60
2016,07,20,14,37,24.60
2016,07,20,14,38,24.60
2016,07,20,14,39,24.60
2016,07,20,14,40,24.60
2016,07,20,14,41,24.60
2016,07,20,14,42,24.60
2016,07,20,14,43,24.60
2016,07,20,14,44,24.60
2016,07,20,14,45,24.60
2016,07,20,14,46,24.60
2016,07,20,14,47,24.70
2016,07,20,14,48,24.70
2016,07,20,14,49,24.80
2016,07,20,14,50,24.80
2016,07,20,14,51,24.80
2016,07,20,14,52,24.90
2016,07,20,14,53,24.90
2016,07,20,14,54,25.00
2016,07,20,14,55,25.00
2016,07,20,14,56,25.00
2016,07,20,14,57,25.00
2016,07,20,14,58,25.00
2016,07,20,14,59,25.10
2016,07,20,15,00,25.00
2016,07,20,15,01,25.00
2016,07,20,15,02,25.00
2016,07,20,15,03,24.90
2016,07,20,15,04,24.90
2016,07,20,15,05,24.90
2016,07,20,15,06,25.00
2016,07,20,15,07,25.00
2016,07,20,15,08,25.00
2016,07,20,15,09,25.00
2016,07,20,15,10,24.90
2016,07,20,15,11,24.80
2016,07,20,15,12,24.80
2016,07,20,15,13,24.70
2016,07,20,15,14,24.70
2016,07,20,15,15,24.70
2016,07,20,15,16,24.70
2016,07,20,15,17,24.70
2016,07,20,15,18,24.80
2016,07,20,15,19,24.80
2016,07,20,15,20,24.90
2016,07,20,15,21,24.90
2016,07,20,15,22,24.90
2016,07,20,15,23,24.90
2016,07,20,15,24,24.90
2016,07,20,15,25,24.90
2016,07,20,15,26,24.80
2016,07,20,15,27,24.80
2016,07,20,15,28,24.70
2016,07,20,15,29,24.70
2016,07,20,15,30,24.60
2016,07,20,15,31,24.50
2016,07,20,15,32,24.40
2016,07,20,15,33,24.40
2016,07,20,15,34,24.40
2016,07,20,15,35,24.40
2016,07,20,15,36,24.30
2016,07,20,15,37,24.30
2016,07,20,15,38,24.30
2016,07,20,15,39,24.30
2016,07,20,15,40,24.30
2016,07,20,15,41,24.30
2016,07,20,15,42,24.30
2016,07,20,15,43,24.20
2016,07,20,15,44,24.10
2016,07,20,15,45,24.10
2016,07,20,15,46,24.10
2016,07,20,15,47,24.10
2016,07,20,15,48,24.10
2016,07,20,15,49,24.20
2016,07,20,15,50,24.20
2016,07,20,15,51,24.20
2016,07,20,15,52,24.20
2016,07,20,15,53,24.20
2016,07,20,15,54,24.20
2016,07,20,15,55,24.20
2016,07,20,15,56,24.20
2016,07,20,15,57,24.20
2016,07,20,15,58,24.20
2016,07,20,15,59,24.30
2016,07,20,16,00,24.40
2016,07,20,16,01,24.40
2016,07,20,16,02,24.50
2016,07,20,16,03,24.60
2016,07,20,16,04,24.60
2016,07,20,16,05,24.60
2016,07,20,16,06,24.60
2016,07,20,16,07,24.70
2016,07,20,16,08,24.70
2016,07,20,16,09,24.80
2016,07,20,16,10,24.80
2016,07,20,16,11,24.80
2016,07,20,16,12,24.90
2016,07,20,16,13,25.00
2016,07,20,16,14,25.00
2016,07,20,16,15,25.00
2016,07,20,16,16,25.00
2016,07,20,16,17,25.00
2016,07,20,16,18,24.90
2016,07,20,16,19,25.00
2016,07,20,16,20,25.10
2016,07,20,16,21,25.10
2016,07,20,16,22,25.20
2016,07,20,16,23,25.20
2016,07,20,16,24,25.30
2016,07,20,16,25,25.30
2016,07,20,16,26,25.40
2016,07,20,16,27,25.40
2016,07,20,16,28,25.30
2016,07,20,16,29,25.20
2016,07,20,16,30,25.20
2016,07,20,16,31,25.20
2016,07,20,16,32,25.20
2016,07,20,16,33,25.20
2016,07,20,16,34,25.30
2016,07,20,16,35,25.40
2016,07,20,16,36,25.40
2016,07,20,16,37,25.50
2016,07,20,16,38,25.50
2016,07,20,16,39,25.40
2016,07,20,16,40,25.30
2016,07,20,16,41,25.30
2016,07,20,16,42,25.30
2016,07,20,16,43,25.30
2016,07,20,16,44,25.30
2016,07,20,16,45,25.30
2016,07,20,16,46,25.30
2016,07,20,16,47,25.30
2016,07,20,16,48,25.40
2016,07,20,16,49,25.40
2016,07,20,16,50,25.50
2016,07,20,16,51,25.50
2016,07,20,16,52,25.60
2016,07,20,16,53,25.50
2016,07,20,16,54,25.50
2016,07,20,16,55,25.50
2016,07,20,16,56,25.50
2016,07,20,16,57,25.50
2016,07,20,16,58,25.40
2016,07,20,16,59,25.40
2016,07,20,17,00,25.30
2016,07,20,17,01,25.30
2016,07,20,17,02,25.30
2016,07,20,17,03,25.30
2016,07,20,17,04,25.40
2016,07,20,17,05,25.40
2016,07,20,17,06,25.50
2016,07,20,17,07,25.50
2016,07,20,17,08,25.50
2016,07,20,17,09,25.60
2016,07,20,17,10,25.50
2016,07,20,17,11,25.50
2016,07,20,17,12,25.40
2016,07,20,17,13,25.40
2016,07,20,17,14,25.40
2016,07,20,17,15,25.40
2016,07,20,17,16,25.40
2016,07,20,17,17,25.40
2016,07,20,17,18,25.40
2016,07,20,17,19,25.40